Tracking 33407 objects as of 5-Mar-2026
HD Live streaming from Space Station
objects crossing your sky now

SATCOM 3 DEB

Track SATCOM 3 DEB now!


NORAD ID: 32984
Int'l Code: 1979-101K
Perigee: 8,280.4 km
Apogee: 35,520.7 km
Inclination: 9.5 °
Period: 788.5 minutes
Semi major axis: 28271 km
RCS: 0.003 m2 (small)
Launch date: December 7, 1979
Source: United States (US)
Launch site: AIR FORCE EASTERN TEST RANGE (AFETR)

Note: This is SATELLITE DEBRIS
Your satellite tracking list
Your tracking list is empty




NASA's NSSDC Master Catalog

Two Line Element Set (TLE):
1 32984U 79101K   26057.24655197 -.00000188  00000-0  00000+0 0  9990
2 32984   9.4578  85.8215 4817612  92.6191 282.0384  1.82632410 87646
Source of the keplerian elements: AFSPC